sat.trackr.live / text

‹ back to catalog

BB4

NORAD 57757 · 2023-133B

PAYLOAD ACTIVE UNKNOWN

§ Identity

Operator
Country
US
Launch date
2023-09-02
Launch site
AFWTR
Launch vehicle
Mass (kg)
RCS (m²)

External: N2YO · Heavens-Above · Gunter

§ Orbital elements

Epoch: 2026-09-18T02:06:49.167648Z

Period
97.05 min
Inclination
81.0002°
Eccentricity
0.0010714
Mean motion
14.83729947 rev/d
Perigee alt
610.1 km
Apogee alt
625.1 km
Semi-major
6,995.7 km
B*
1.3016e-4
RAAN
258.4718°
Arg perigee
52.3064°
Mean anomaly
307.9117°
Rev number
15,506

§ Raw data

BB41 57757U 23133B   26261.08806907  .00001094  00000+0  13016-3 0  99952 57757  81.0002 258.4718 0010714  52.3064 307.9117 14.83729947155061

JSON: /api/v1/satellites/57757 · /tle

For live sub-satellite position, see the globe view (requires WebGL).

§ Visibility from observer

Set your observer location to see the next 7 days of passes ≥ 10°. The values pass through the URL so the page stays shareable.

No JS? Fill the form by hand. The geolocation button needs JavaScript.